Tracking 19969 objects as of 12-Nov-2019
Live streaming from Space Station
objects crossing your sky now
Track the group of recently launched Starlink satellites

NOAA 16 DEB

Track NOAA 16 DEB now!
10-day predictions


NORAD ID: 41138
Int'l Code: 2000-055BV
Perigee: 844.9 km
Apogee: 856.5 km
Inclination: 98.8 °
Period: 101.8 minutes
Semi major axis: 7221 km
RCS: Unknown
Launch date: September 21, 2000
Source: United States (US)
Launch site: AIR FORCE WESTERN TEST RANGE (AFWTR)

Note: This is SATELLITE DEBRIS
aabbcc
Your satellite tracking list
Your tracking list is empty




NASA's NSSDC Master Catalog

Two Line Element Set (TLE):
1 41138U 00055BV  19314.63222638 +.00002803 +00000-0 +14804-2 0  9999
2 41138 098.8354 028.7115 0008042 127.1421 233.0488 14.14632971202394
Source of the keplerian elements: AFSPC